Regional Weather Roundup
Issued by NWS Mobile, AL

Home | Current Version | Previous Version | Text Only | Print | Product List | Glossary On
Versions: 1 2 3 4 5 6 7 8 9 10 11 12 13 14 15 16 17 18 19 20 21 22 23 24 25 26 27 28 29 30 31 32 33 34 35 36 37 38 39 40 41 42 43 44 45 46 47 48 49 50
596
ASUS44 KMOB 102212
RWRMOB
REGIONAL WEATHER ROUNDUP
NATIONAL WEATHER SERVICE MOBILE AL
400 PM CST SAT DEC 10 2016

NOTE: "FAIR" INDICATES FEW OR NO CLOUDS BELOW 12,000 FEET WITH NO
      SIGNIFICANT WEATHER AND/OR OBSTRUCTIONS TO VISIBILITY.

  * THESE STATIONS ARE PART OF THE UNIVERSITY OF SOUTH ALABAMA
    MESONET AND ARE NOT UNDER NWS OR FAA QUALITY CONTROL.

ALZ061>064-102300-
COASTAL ALABAMA

CITY           SKY/WX    TMP DP  RH WIND       PRES   REMARKS
MOBILE REG APT CLEAR     52  15  23 NE9       30.40S
BROOKLEY FIELD CLEAR     54  20  26 N7        30.41S
USA CAMPUS*      N/A     50  18  27 NE2       30.39S
DOG RIVER*       N/A     52  21  30 CALM      31.27S


CITY           SKY/WX    TMP DP  RH WIND       PRES   REMARKS
GULF SHORES    CLEAR     53  17  24 NE6       30.39F

$$

ALZ051>060-102300-
INTERIOR SOUTHWEST AND SOUTH CENTRAL ALABAMA

CITY           SKY/WX    TMP DP  RH WIND       PRES   REMARKS
GREENVILLE     CLEAR     53  10  18 NE7       30.40S
EVERGREEN      CLEAR     53  13  20 N7        30.41S
ATMORE*          N/A     52  18  25 N7        30.41S
ANDALUSIA/OPP  CLEAR     56  12  17 NE3       30.40S
ANDALUSIA*       N/A     52  14  22 NE5       30.39S
FLORALA APT    CLEAR     52  15  23 NE6       30.41
FLORALA*         N/A     52  16  24 CALM      31.23S

$$

FLZ001>006-102300-
WESTERN FLORIDA PANHANDLE

CITY           SKY/WX    TMP DP  RH WIND       PRES   REMARKS
PENSACOLA      CLEAR     55  17  22 N6        30.39S
NAS PENSACOLA  CLEAR     54  16  22 N8        30.39S
MILTON         CLEAR     53  16  23 NE3       30.39F
WHTNG S FIELD  CLEAR     56  18  22 NE7       30.40S


CITY           SKY/WX    TMP DP  RH WIND       PRES   REMARKS
JAY*             N/A     52  12  20 E5        30.40S
DUKE FIELD     CLEAR     54  15  21 NE7       30.38S
CRESTVIEW      CLEAR     54  16  22 NE5       30.41S
VALPARAISO     CLEAR     55  15  20 NE10      30.39R
DESTIN         CLEAR     57  17  21 NE7       30.40R

$$

MSZ076-079-102300-
INTERIOR SOUTHEAST MISSISSIPPI

CITY           SKY/WX    TMP DP  RH WIND       PRES   REMARKS
LEAKESVILLE*   NOT AVBL
AGRICOLA*      NOT AVBL

$$

MARINE OBSERVATIONS

STATION/POSITION TIME  TEMP    WIND        PRES    WAVE
                       AIR SEA DIR/SP/G            HT/PER
                 (UTC) (F)     (DEG/KT/KT) (MB)    (FT/S)
PASCAGOULA       2142   53      60/  4/  6 1028.9R
PETIT BOIS ISLND 2142   51      70/  9/ 11 1029.8S
GRAND BAY        2030   53      30/  8     1030.0F
KATRINA CUT      2130   50      40/  9     1029.5R
CEDAR POINT      2130   50      40/  9     1028.8F
E DAUPHIN ISLAND 2100   50      10/ 10/ 12 1029.2F
MIDDLE BAY LIGHT 2130          350/ 11     1028.8F
USCG MOBILE BAY  2142   52 57   20/  6/  8 1029.8F
STATE DOCKS      2142   53 61              1029.1F
MEAHER PARK      2130   54      20/  4     1029.1F
WEEKS BAY        2045   54                   N/A
12 S ORANGE BCH  2150   53 69   30/  6/ 10 1029.5F   2/ 6
PENSACOLA BAY    2142   55 60   30/  6/  9 1029.1F
64 S DAUPHIN ISL 2150   56 74   40/ 12/ 19 1028.8F   3/ 5
67 S FORT MORGAN 2130   58      40/ 12     1028.4S

$$

SELECTED LOCATIONS ACROSS THE REGION

CITY           SKY/WX    TMP DP  RH WIND       PRES   REMARKS
NEW ORLEANS    MOSUNNY   52  25  35 N9        30.41R
GULFPORT       CLEAR     55  18  23 NE7       30.40R
PASCAGOULA AP  CLEAR     54  16  22 NE7       30.39S
PASCAGOULA*    NOT AVBL
HATTIESBURG    CLEAR     53  13  20 NE5       30.42S
LAUREL         CLEAR     52  14  22 E3        30.43S
MERIDIAN       CLEAR     52  13  21 E8        30.42S
JACKSON        CLEAR     52  18  26 NE3       30.40F
MONTGOMERY     CLEAR     53   9  17 N6        30.43S
TROY           CLEAR     52  14  22 N6        30.42R
ASHFORD*         N/A     52  14  22 NE5       30.39S
DOTHAN         CLEAR     52  22  30 E5        30.43S
PANAMA CITY    CLEAR     55  21  26 N8        30.38R

$$





USA.gov is the U.S. government's official web portal to all federal, state and local government web resources and services.